Location:  
MeteoStar


Sort by weather type Sort by elevation Sort by visibility Sort from west to east north Sort from north to south Alphabetically Sort from strongest wind speed Sort from lowest to highest pressure Sort from highest to lowest dew point temperature Sort coolest temperatures to warmest Sort warm temperatures to coolest
 Metric

Current Observations for United Kingdom sorted by weather type

Altnaharra04:00ZLight Showers52 4913992.7SSW 9 49265
Trawscoed04:00ZHeavy Rain57 5631008.7S 6 57206
Sennybridge04:00ZRain55 541.621009.4SW 20 Gusting to 31 551007
Capel Curig04:00ZRain55 541.871006.0SW 30 Gusting to 44 55708
Baltasound04:00ZRain49 491.37993.4SE 27 Gusting to 37 4149
Sumburgh Cape 03:50ZRain52 522.75991.1S 12 4816
Camborne04:00ZRain56 550.621013.5SW 20 Gusting to 30 56285
Lerwick04:00ZLight Rain51 510.12991.9ESE 16 Gusting to 31 46269
Mildenhall Royal Air Force Base03:44ZLight Rain59 52181010.5WSW 14 Gusting to 19 5932
Lossiemouth03:50ZLight Rain55 501.87993.1WSW 14 5542
Prestwick Airport03:50ZLight Rain54 5041002.1WSW 15 5065
London / Gatwick Airport03:50ZLight Rain57 5521014.1SW 13 57203
Aultbea04:00ZRain/Drizzle50 487995.5W 20 Gusting to 32 4436
Cardinham04:00ZDrizzle55 551.51013.5SW 19 Gusting to 29 55656
Valley03:50ZDrizzle55 551.51006.1SW 20 553
Lakenheath Royal Air Force Base03:41ZLight Drizzle59 5941010.5SW 15 5932
Inverness / Dalcross03:50ZShowers nearby55 5230994.1SW 14 5529
Kenley04:00ZMist55 5471014.2SW 13 55557
Walney Island04:00ZMist56 5541004.4SW 14 5649
Plymouth04:00ZMist57 5561014.5SW 24 Gusting to 32 57164
Isle Of Portland04:00ZHaze58 5541015WSW 26 Gusting to 38 58173
Dunkeswell Aerodrome04:00ZHaze55 5361013.7SW 12 55826
Tain Range04:00ZHaze53 5225993SW 14 4913
Marham04:00ZCloudy58 5491010.2SW 15 Gusting to 26 5875
Coningsby Royal Air Force Base04:00ZCloudy59 54251008.2SW 16 5922
Brize Norton03:50ZCloudy57 52201011.1SW 10 57288
Fairford Royal Air Force Base03:56ZCloudy57 54251011.4SW 15 Gusting to 22 57285
Norwich Weather Centre03:50ZCloudy59 541.871010.1WSW 15 5945
Stornoway03:50ZCloudy50 4614993.1WSW 14 4529
Glasgow Airport03:50ZCloudy52 48301000.1SW 12 Gusting to 23 4826
Newcastle 03:50ZCloudy59 50201001.1WSW 7 59265
Humberside03:50ZCloudy59 55201006.1SSW 17 59101
Lydd Airport 03:50ZCloudy59 57201015.1SW 20 599
Luton Airport 03:50ZCloudy57 5481012.1SSW 15 Gusting to 26 57524
Bristol / Lulsgate 03:50ZCloudy57 5481012.1SSW 11 57620
Cardiff-Wales Airport03:50ZCloudy57 5781012.1WSW 11 57219
Culdrose03:50ZCloudy55 552.251013.1SW 26 Gusting to 36 55255
Manchester Airport03:50ZCloudy57 55301006.1SSW 12 57226
Birmingham / Airport03:50ZCloudy57 54301009.1SSW 10 57324
Northolt03:50ZMostly Cloudy59 54201013.1SW 12 59124
Stansted Airport03:50ZMostly Cloudy57 541.871012.1SW 17 Gusting to 28 57347
Boulmer03:50ZMostly Cloudy57 54201000.1SW 15 5775
Kinloss03:50ZMostly Cloudy55 5230993.1SW 16 5522
Tiree03:50ZMostly Cloudy50 4611999.1W 16 4439
Benbecula03:50ZMostly Cloudy50 454996.1W 23 4319
Edinburgh Airport03:50ZMostly Cloudy55 5030998.1W 16 Gusting to 27 55134
Shawbury03:50ZMostly Cloudy59 54401007.1SW 17 59249
East Midlands03:50ZMostly Cloudy57 54201008.1WSW 15 57308
London / Heathrow Airport03:50ZMostly Cloudy57 54201013.1SW 15 5778
Jersey Airport03:50ZMostly Cloudy55 551.251019.1WSW 16 55275
Guernsey Airport03:50ZMostly Cloudy57 55151018.1SW 21 57334
Yeovilton03:50ZMostly Cloudy59 5481013.1SSW 16 5975
Boscombe Down03:50ZMostly Cloudy57 54151013.1SW 18 57406
Belfast / Harbour03:50ZMostly Cloudy52 48301003.1WSW 8 4916
Belfast / Aldergrove Airport03:50ZMostly Cloudy50 48301004.1WSW 11 46265
Leuchars03:50ZPartly Cloudy55 5020997.1WSW 22 5539
Aberdeen / Dyce03:50ZPartly Cloudy55 5430994.1S 8 55213
Isle Of Man / Ronaldsway Airport03:50ZPartly Cloudy55 50201004.1WSW 13 5555
London City Airport03:50ZPartly Cloudy61 5421013.1WSW 14 6116
Glenanne04:00ZClear49 48251004.0WNW 7 46528
Portglenone04:00ZClear50 47451003.2W 5 48209
Castlederg04:00ZClear48 4771003.5WSW 6 45167
Weybourne04:00ZClear57 54251009.0SW 21 Gusting to 33 5768
Crosby04:00ZClear55 5391006.0W 12 5526
Eskdalemuir04:00ZClear54 4925999.5SW 22 Gusting to 36 49793
Strathallan04:00ZClear53 5030997.7SW 14 49114
Prestwick Rnas04:00ZClear53 50201001.5WSW 20 Gusting to 29 4885
Inverbervie04:00ZClear54 5225994.5SW 24 Gusting to 33 48439
Aviemore04:00ZClear52 4645995.0SW 7 Gusting to 20 50721
Tulloch Bridge04:00ZClear51 4630997.9WNW 5 49777
Fair Isle04:00ZClear52 N/A4991.5S 12 187
Middle Wallop04:00ZClear56 55121014.2SSW 13 56298
Odiham04:00ZClear56 5431013.9SSW 18 Gusting to 25 56403
Aberporth04:00ZClear56 5641008.7SSW 19 Gusting to 31 56436
Wick03:50ZClear54 5225991.1SSW 9 51127
Kirkwall Airport03:50ZClear52 5030991.1SSW 12 4868
Southend-On-Sea 03:50ZClear57 54201013.1SW 19 5749
Farnborough03:50ZClear57 5481013.1SSW 17 57213
Scilly; Saint MaryS04:00ZClear57 5621012.9SSW 29 Gusting to 38 57101
Liverpool Airport 03:50ZClear59 5481006.1SW 11 Gusting to 24 5985

Atlantic
Tropical Watch